Stündliche Wetter La Calera

Heute, 16 Mai, Sonntag

Zeit Temperatur Niederschläge Wind Luftdruck Luftfeuchtigkeit
00:00 +19°C° 1.1 mm 3 m/S 617 mmHg 75%
01:00 +19°C° 1.1 mm 2 m/S 617 mmHg 73%
02:00 +19°C° 1.1 mm 2 m/S 617 mmHg 72%
03:00 +18°C° 0 mm 2 m/S 617 mmHg 73%
04:00 +19°C° 0 mm 1 m/S 617 mmHg 75%
05:00 +18°C° 0 mm 1 m/S 617 mmHg 76%
06:00 +20°C° 0 mm 1 m/S 617 mmHg 70%
07:00 +21°C° 0 mm 1 m/S 618 mmHg 64%
08:00 +23°C° 0 mm 1 m/S 619 mmHg 57%
09:00 +24°C° 0 mm 2 m/S 619 mmHg 50%
10:00 +26°C° 0 mm 2 m/S 619 mmHg 42%
11:00 +28°C° 0 mm 2 m/S 619 mmHg 34%
12:00 +29°C° 0 mm 3 m/S 619 mmHg 30%
13:00 +30°C° 0 mm 3 m/S 618 mmHg 26%
14:00 +31°C° 0 mm 3 m/S 618 mmHg 22%
15:00 +31°C° 0 mm 3 m/S 618 mmHg 20%
16:00 +31°C° 0 mm 3 m/S 617 mmHg 18%
17:00 +31°C° 0 mm 3 m/S 617 mmHg 17%
18:00 +29°C° 0 mm 3 m/S 617 mmHg 20%
19:00 +27°C° 0 mm 2 m/S 616 mmHg 22%
20:00 +26°C° 0 mm 2 m/S 616 mmHg 25%
21:00 +25°C° 0 mm 1 m/S 616 mmHg 27%
22:00 +24°C° 0 mm 1 m/S 616 mmHg 29%
23:00 +23°C° 0 mm 1 m/S 616 mmHg 31%

Morgen, 17 Mai, Montag

Zeit Temperatur Niederschläge Wind Luftdruck Luftfeuchtigkeit
00:00 +23°C° 0 mm 1 m/S 616 mmHg 35%
01:00 +22°C° 0 mm 1 m/S 616 mmHg 38%
02:00 +22°C° 0 mm 1 m/S 616 mmHg 41%
03:00 +21°C° 0 mm 1 m/S 616 mmHg 45%
04:00 +21°C° 0 mm 1 m/S 616 mmHg 49%
05:00 +20°C° 0 mm 1 m/S 616 mmHg 53%
06:00 +22°C° 0 mm 1 m/S 617 mmHg 50%
07:00 +23°C° 0 mm 1 m/S 617 mmHg 46%
08:00 +25°C° 0 mm 2 m/S 618 mmHg 43%
09:00 +27°C° 0 mm 2 m/S 618 mmHg 37%
10:00 +28°C° 0 mm 2 m/S 619 mmHg 31%
11:00 +30°C° 0 mm 2 m/S 619 mmHg 25%
12:00 +31°C° 0 mm 2 m/S 618 mmHg 23%
13:00 +32°C° 0 mm 2 m/S 618 mmHg 20%
14:00 +34°C° 0 mm 2 m/S 617 mmHg 17%
15:00 +33°C° 0 mm 3 m/S 617 mmHg 18%
16:00 +33°C° 0 mm 4 m/S 617 mmHg 19%
17:00 +32°C° 0 mm 4 m/S 616 mmHg 19%
18:00 +30°C° 0 mm 4 m/S 616 mmHg 24%
19:00 +28°C° 0 mm 3 m/S 616 mmHg 28%
20:00 +27°C° 0 mm 2 m/S 616 mmHg 32%
21:00 +26°C° 0.1 mm 2 m/S 616 mmHg 38%
22:00 +25°C° 0.1 mm 1 m/S 616 mmHg 43%
23:00 +24°C° 0.1 mm 1 m/S 617 mmHg 49%

übermorgen, 18 Mai, Dienstag

Zeit Temperatur Niederschläge Wind Luftdruck Luftfeuchtigkeit
00:00 +23°C° 0.2 mm 1 m/S 616 mmHg 53%
01:00 +21°C° 0.2 mm 0 m/S 616 mmHg 56%
02:00 +20°C° 0.2 mm 0 m/S 615 mmHg 60%
03:00 +19°C° 0.1 mm 0 m/S 615 mmHg 62%
04:00 +21°C° 0.1 mm 1 m/S 615 mmHg 64%
05:00 +20°C° 0.1 mm 1 m/S 615 mmHg 66%
06:00 +22°C° 0 mm 1 m/S 616 mmHg 61%
07:00 +23°C° 0 mm 1 m/S 617 mmHg 55%
08:00 +25°C° 0 mm 2 m/S 618 mmHg 49%
09:00 +27°C° 0 mm 2 m/S 618 mmHg 42%
10:00 +28°C° 0 mm 3 m/S 618 mmHg 35%
11:00 +30°C° 0 mm 4 m/S 618 mmHg 28%
12:00 +32°C° 0 mm 4 m/S 618 mmHg 24%
13:00 +33°C° 0 mm 4 m/S 617 mmHg 21%
14:00 +34°C° 0 mm 5 m/S 617 mmHg 17%
15:00 +33°C° 0 mm 5 m/S 616 mmHg 16%
16:00 +33°C° 0 mm 5 m/S 616 mmHg 15%
17:00 +33°C° 0 mm 6 m/S 615 mmHg 14%
18:00 +30°C° 0 mm 5 m/S 615 mmHg 18%
19:00 +28°C° 0 mm 4 m/S 615 mmHg 23%
20:00 +26°C° 0 mm 3 m/S 615 mmHg 27%
21:00 +25°C° 0 mm 2 m/S 615 mmHg 34%
22:00 +24°C° 0 mm 2 m/S 615 mmHg 41%
23:00 +23°C° 0 mm 1 m/S 615 mmHg 48%

19 Mai, Mittwoch

Zeit Temperatur Niederschläge Wind Luftdruck Luftfeuchtigkeit
00:00 +22°C° 0 mm 1 m/S 615 mmHg 51%
01:00 +22°C° 0 mm 1 m/S 615 mmHg 54%
02:00 +21°C° 0 mm 1 m/S 614 mmHg 56%
03:00 +21°C° 0 mm 1 m/S 614 mmHg 59%
04:00 +20°C° 0 mm 1 m/S 614 mmHg 61%
05:00 +20°C° 0 mm 1 m/S 614 mmHg 63%
06:00 +21°C° 0 mm 1 m/S 615 mmHg 59%
07:00 +23°C° 0 mm 2 m/S 616 mmHg 54%
08:00 +24°C° 0 mm 2 m/S 616 mmHg 49%
09:00 +26°C° 0 mm 3 m/S 617 mmHg 41%
10:00 +28°C° 0 mm 3 m/S 617 mmHg 32%
11:00 +30°C° 0 mm 4 m/S 617 mmHg 23%
12:00 +32°C° 0 mm 4 m/S 617 mmHg 20%
13:00 +33°C° 0 mm 5 m/S 616 mmHg 17%
14:00 +33°C° 0 mm 5 m/S 616 mmHg 14%
15:00 +33°C° 0 mm 5 m/S 615 mmHg 14%
16:00 +33°C° 0 mm 6 m/S 615 mmHg 13%
17:00 +32°C° 0 mm 6 m/S 615 mmHg 13%
18:00 +29°C° 0 mm 5 m/S 615 mmHg 16%
19:00 +27°C° 0 mm 3 m/S 615 mmHg 19%
20:00 +25°C° 0 mm 2 m/S 615 mmHg 22%
21:00 +24°C° 0 mm 2 m/S 615 mmHg 26%
22:00 +23°C° 0 mm 2 m/S 615 mmHg 30%
23:00 +23°C° 0 mm 1 m/S 615 mmHg 33%

20 Mai, Donnerstag

Zeit Temperatur Niederschläge Wind Luftdruck Luftfeuchtigkeit
00:00 +22°C° 0 mm 1 m/S 615 mmHg 36%
01:00 +21°C° 0 mm 1 m/S 614 mmHg 38%
02:00 +20°C° 0 mm 1 m/S 614 mmHg 41%
03:00 +20°C° 0 mm 1 m/S 614 mmHg 43%
04:00 +17°C° 0 mm 0 m/S 614 mmHg 44%
05:00 +17°C° 0 mm 0 m/S 614 mmHg 46%
06:00 +19°C° 0 mm 0 m/S 615 mmHg 41%
07:00 +22°C° 0 mm 1 m/S 616 mmHg 37%
08:00 +24°C° 0 mm 1 m/S 617 mmHg 32%
09:00 +26°C° 0 mm 1 m/S 617 mmHg 27%
10:00 +28°C° 0 mm 2 m/S 617 mmHg 23%
11:00 +29°C° 0 mm 2 m/S 618 mmHg 18%
12:00 +30°C° 0 mm 2 m/S 617 mmHg 16%
13:00 +31°C° 0 mm 2 m/S 617 mmHg 14%
14:00 +32°C° 0 mm 2 m/S 616 mmHg 12%
15:00 +32°C° 0 mm 2 m/S 616 mmHg 12%
16:00 +32°C° 0 mm 2 m/S 615 mmHg 12%
17:00 +32°C° 0 mm 2 m/S 615 mmHg 11%
18:00 +30°C° 0 mm 2 m/S 615 mmHg 16%
19:00 +28°C° 0 mm 3 m/S 615 mmHg 21%
20:00 +26°C° 0 mm 3 m/S 615 mmHg 26%
21:00 +25°C° 0 mm 2 m/S 615 mmHg 34%
22:00 +24°C° 0 mm 2 m/S 615 mmHg 42%
23:00 +23°C° 0 mm 1 m/S 615 mmHg 50%

21 Mai, Freitag

Zeit Temperatur Niederschläge Wind Luftdruck Luftfeuchtigkeit
00:00 +22°C° 0 mm 1 m/S 615 mmHg 51%
01:00 +22°C° 0 mm 1 m/S 614 mmHg 53%
02:00 +21°C° 0 mm 1 m/S 614 mmHg 54%
03:00 +21°C° 0 mm 1 m/S 614 mmHg 56%
04:00 +20°C° 0 mm 1 m/S 614 mmHg 59%
05:00 +20°C° 0 mm 1 m/S 614 mmHg 61%
06:00 +22°C° 0 mm 1 m/S 615 mmHg 56%
07:00 +23°C° 0 mm 2 m/S 616 mmHg 51%
08:00 +25°C° 0 mm 2 m/S 617 mmHg 45%
09:00 +27°C° 0 mm 2 m/S 617 mmHg 38%
10:00 +29°C° 0 mm 2 m/S 617 mmHg 31%
11:00 +31°C° 0 mm 2 m/S 618 mmHg 24%
12:00 +32°C° 0 mm 2 m/S 617 mmHg 22%
13:00 +32°C° 0 mm 1 m/S 617 mmHg 19%
14:00 +33°C° 0 mm 1 m/S 617 mmHg 17%
15:00 +34°C° 0 mm 2 m/S 617 mmHg 17%
16:00 +34°C° 0 mm 2 m/S 616 mmHg 17%
17:00 +34°C° 0 mm 2 m/S 616 mmHg 17%
18:00 +31°C° 0 mm 3 m/S 616 mmHg 23%
19:00 +29°C° 0 mm 4 m/S 616 mmHg 28%
20:00 +28°C° 0 mm 5 m/S 616 mmHg 34%
21:00 +27°C° 0 mm 4 m/S 616 mmHg 38%
22:00 +25°C° 0 mm 3 m/S 616 mmHg 42%
23:00 +24°C° 0 mm 2 m/S 617 mmHg 47%
Mehr zeigen

Wir brauchen deine Erlaubnis

Meteoprog und unser Service Anbieter werden persönliche Daten aufbewahren, so wie Cookies, Geräte Bezeichnung oder ähnliche Technologien von deinem Gerät und Prozess, so wie Persönliche Daten Inhalte und Werbungen, genauso wie social Media und den Verkehr zu analysieren.

  • Aufbewahrung und/oder Zugang zu deiner Geräte Informationen.

    Cookies, Geräte Bezeichnung oder andere Informationen, können aufbewahrt oder Zugang zu deinem Gerät erhalten, für den Grund, der oben angegeben wird.

  • Personalisierte Werbung und Inhalte, Messungen, Einblick in das Publikum und Produkt Entwicklung.

    Werbungen und Inhalte können personalisiert werden, basierend auf ein Profil. Mehr Daten können besser personalisierte Werbungen und Inhalte hinzufügen. Werbung und Inhalte können gezeigt und gemessen werden. Einblicke über das Publikum, welche die Werbung gesehen haben und den Inhalt, können abgeleitet werden. So wie Daten können genutzt werden, um es zu verbessern oder die Benutzer Erfahrung zu verbessern das System und die Software.

Wenn du “Ich stimme zu” klickst, erlaubst du uns, die Cookies zu benutzen die Geräte Bezeichnung, den Web oder ähnliche Technologien zu benutzen. Deine Settings, können in deinem Gerät bei deinem Browser geändert werden.

Für den bestimmten Zweck, berechtigten Interessen beruhen darauf, mehr als auf den Inhalt. Du kannst mehr darüber in unseren Privaten und Cookie Politik lesen.